• In Czech Republic
  • List of Countries
  • For 7 days
  • Water Temperature
  • Satellite Maps
  • Weather Map
  • Weather Widgets
  • user-avatar
    Login

    Hourly Weather Shusha

    Today, 22 May, Tuesday

    Time Temperature Precipitation Wind Pressure Humidity
    00:00 +15°C° 0 mm 2 mps 661 mmHg 68%
    01:00 +15°C° 0 mm 2 mps 661 mmHg 69%
    02:00 +14°C° 0 mm 2 mps 661 mmHg 70%
    03:00 +15°C° 0 mm 2 mps 661 mmHg 70%
    04:00 +15°C° 0 mm 2 mps 662 mmHg 69%
    05:00 +16°C° 0 mm 2 mps 662 mmHg 69%
    06:00 +16°C° 0 mm 2 mps 663 mmHg 68%
    07:00 +18°C° 0 mm 2 mps 663 mmHg 62%
    08:00 +19°C° 0 mm 2 mps 664 mmHg 56%
    09:00 +21°C° 0 mm 2 mps 664 mmHg 51%
    10:00 +21°C° 0.1 mm 2 mps 664 mmHg 50%
    11:00 +22°C° 0.1 mm 3 mps 665 mmHg 48%
    12:00 +24°C° 0.1 mm 3 mps 665 mmHg 46%
    13:00 +24°C° 0.3 mm 3 mps 664 mmHg 46%
    14:00 +24°C° 0.3 mm 3 mps 664 mmHg 45%
    15:00 +24°C° 0 mm 3 mps 664 mmHg 46%
    16:00 +22°C° 0.1 mm 3 mps 664 mmHg 48%
    17:00 +21°C° 0.1 mm 2 mps 664 mmHg 51%
    18:00 +20°C° 0.1 mm 2 mps 664 mmHg 53%
    19:00 +19°C° 0 mm 2 mps 664 mmHg 56%
    20:00 +17°C° 0 mm 2 mps 664 mmHg 59%
    21:00 +16°C° 0 mm 2 mps 664 mmHg 62%
    22:00 +16°C° 0 mm 2 mps 664 mmHg 62%
    23:00 +15°C° 0 mm 2 mps 663 mmHg 61%

    Tomorrow, 23 May, Wednesday

    Time Temperature Precipitation Wind Pressure Humidity
    00:00 +15°C° 0 mm 2 mps 663 mmHg 61%
    01:00 +14°C° 0 mm 2 mps 663 mmHg 58%
    02:00 +14°C° 0 mm 2 mps 663 mmHg 55%
    03:00 +14°C° 0 mm 2 mps 663 mmHg 52%
    04:00 +14°C° 0 mm 2 mps 664 mmHg 51%
    05:00 +15°C° 0 mm 2 mps 664 mmHg 49%
    06:00 +15°C° 0 mm 2 mps 664 mmHg 48%
    07:00 +17°C° 0 mm 2 mps 665 mmHg 43%
    08:00 +19°C° 0 mm 2 mps 665 mmHg 38%
    09:00 +21°C° 0 mm 2 mps 666 mmHg 33%
    10:00 +23°C° 0 mm 2 mps 666 mmHg 32%
    11:00 +24°C° 0 mm 2 mps 666 mmHg 31%
    12:00 +25°C° 0 mm 3 mps 666 mmHg 29%
    13:00 +25°C° 0 mm 3 mps 665 mmHg 30%
    14:00 +25°C° 0 mm 3 mps 665 mmHg 30%
    15:00 +25°C° 0 mm 4 mps 665 mmHg 31%
    16:00 +24°C° 0 mm 3 mps 664 mmHg 35%
    17:00 +22°C° 0 mm 3 mps 664 mmHg 39%
    18:00 +21°C° 0 mm 2 mps 664 mmHg 43%
    19:00 +19°C° 0 mm 2 mps 663 mmHg 45%
    20:00 +18°C° 0 mm 2 mps 663 mmHg 48%
    21:00 +16°C° 0 mm 3 mps 663 mmHg 50%
    22:00 +14°C° 0 mm 3 mps 663 mmHg 48%
    23:00 +14°C° 0 mm 3 mps 663 mmHg 47%

    Day after tomorrow, 24 May, Thursday

    Time Temperature Precipitation Wind Pressure Humidity
    00:00 +14°C° 0 mm 3 mps 663 mmHg 45%
    01:00 +13°C° 0 mm 3 mps 662 mmHg 40%
    02:00 +13°C° 0 mm 3 mps 662 mmHg 36%
    03:00 +14°C° 0 mm 2 mps 662 mmHg 31%
    04:00 +14°C° 0 mm 2 mps 662 mmHg 32%
    05:00 +14°C° 0 mm 2 mps 662 mmHg 33%
    06:00 +15°C° 0 mm 2 mps 662 mmHg 33%
    07:00 +17°C° 0 mm 2 mps 662 mmHg 30%
    08:00 +19°C° 0 mm 2 mps 663 mmHg 27%
    09:00 +21°C° 0 mm 2 mps 663 mmHg 24%
    10:00 +23°C° 0 mm 2 mps 663 mmHg 24%
    11:00 +23°C° 0 mm 2 mps 663 mmHg 24%
    12:00 +24°C° 0 mm 2 mps 663 mmHg 25%
    13:00 +24°C° 0 mm 2 mps 662 mmHg 26%
    14:00 +24°C° 0 mm 2 mps 662 mmHg 27%
    15:00 +24°C° 0 mm 2 mps 662 mmHg 28%
    16:00 +24°C° 0 mm 2 mps 661 mmHg 31%
    17:00 +23°C° 0 mm 2 mps 661 mmHg 35%
    18:00 +22°C° 0 mm 1 mps 660 mmHg 39%
    19:00 +19°C° 0 mm 2 mps 660 mmHg 41%
    20:00 +18°C° 0 mm 2 mps 660 mmHg 43%
    21:00 +16°C° 0 mm 2 mps 659 mmHg 45%
    22:00 +15°C° 0 mm 2 mps 659 mmHg 45%
    23:00 +15°C° 0 mm 2 mps 659 mmHg 45%

    25 May, Friday

    Time Temperature Precipitation Wind Pressure Humidity
    00:00 +15°C° 0 mm 2 mps 659 mmHg 45%
    01:00 +14°C° 0 mm 2 mps 658 mmHg 45%
    02:00 +14°C° 0 mm 2 mps 658 mmHg 45%
    03:00 +14°C° 0 mm 2 mps 658 mmHg 45%
    04:00 +15°C° 0 mm 2 mps 658 mmHg 46%
    05:00 +15°C° 0 mm 2 mps 658 mmHg 47%
    06:00 +16°C° 0 mm 2 mps 658 mmHg 48%
    07:00 +18°C° 0 mm 2 mps 659 mmHg 43%
    08:00 +20°C° 0 mm 2 mps 659 mmHg 39%
    09:00 +23°C° 0 mm 2 mps 660 mmHg 34%
    10:00 +24°C° 0 mm 2 mps 659 mmHg 34%
    11:00 +25°C° 0 mm 2 mps 659 mmHg 33%
    12:00 +26°C° 0 mm 3 mps 659 mmHg 32%
    13:00 +26°C° 0.2 mm 3 mps 659 mmHg 33%
    14:00 +26°C° 0.2 mm 3 mps 658 mmHg 34%
    15:00 +26°C° 0.2 mm 2 mps 658 mmHg 35%
    16:00 +25°C° 0.2 mm 2 mps 658 mmHg 39%
    17:00 +24°C° 0.2 mm 2 mps 657 mmHg 43%
    18:00 +23°C° 0.2 mm 1 mps 657 mmHg 48%
    19:00 +21°C° 0.1 mm 2 mps 657 mmHg 51%
    20:00 +19°C° 0.1 mm 2 mps 657 mmHg 54%
    21:00 +18°C° 0.1 mm 2 mps 657 mmHg 57%
    22:00 +17°C° 0.1 mm 2 mps 657 mmHg 57%
    23:00 +17°C° 0.1 mm 2 mps 657 mmHg 58%

    26 May, Saturday

    Time Temperature Precipitation Wind Pressure Humidity
    00:00 +17°C° 0.1 mm 2 mps 657 mmHg 58%
    01:00 +16°C° 0 mm 2 mps 656 mmHg 58%
    02:00 +16°C° 0 mm 2 mps 656 mmHg 58%
    03:00 +16°C° 0 mm 2 mps 656 mmHg 58%
    04:00 +16°C° 0 mm 2 mps 657 mmHg 57%
    05:00 +17°C° 0 mm 2 mps 657 mmHg 57%
    06:00 +18°C° 0 mm 2 mps 657 mmHg 56%
    07:00 +19°C° 0 mm 2 mps 658 mmHg 50%
    08:00 +21°C° 0 mm 2 mps 659 mmHg 45%
    09:00 +24°C° 0 mm 2 mps 659 mmHg 40%
    10:00 +25°C° 0.1 mm 2 mps 659 mmHg 38%
    11:00 +25°C° 0.1 mm 2 mps 659 mmHg 37%
    12:00 +26°C° 0.1 mm 3 mps 659 mmHg 36%
    13:00 +26°C° 0.3 mm 2 mps 659 mmHg 37%
    14:00 +26°C° 0.3 mm 2 mps 659 mmHg 38%
    15:00 +26°C° 0.3 mm 2 mps 659 mmHg 39%
    16:00 +25°C° 0.2 mm 2 mps 659 mmHg 45%
    17:00 +23°C° 0.2 mm 2 mps 659 mmHg 50%
    18:00 +21°C° 0.2 mm 2 mps 659 mmHg 56%
    19:00 +20°C° 0.1 mm 2 mps 659 mmHg 60%
    20:00 +19°C° 0.1 mm 2 mps 659 mmHg 64%
    21:00 +17°C° 0.1 mm 2 mps 660 mmHg 68%
    22:00 +17°C° 0.3 mm 2 mps 660 mmHg 72%
    23:00 +16°C° 0.3 mm 2 mps 660 mmHg 75%

    27 May, Sunday

    Time Temperature Precipitation Wind Pressure Humidity
    00:00 +15°C° 0.3 mm 2 mps 660 mmHg 79%
    01:00 +14°C° 0.1 mm 3 mps 661 mmHg 79%
    02:00 +13°C° 0.1 mm 3 mps 661 mmHg 78%
    03:00 +13°C° 0.1 mm 3 mps 661 mmHg 78%
    04:00 +13°C° 0 mm 4 mps 662 mmHg 77%
    05:00 +13°C° 0 mm 4 mps 662 mmHg 76%
    06:00 +12°C° 0 mm 4 mps 663 mmHg 75%
    07:00 +13°C° 0 mm 5 mps 663 mmHg 72%
    08:00 +13°C° 0 mm 5 mps 664 mmHg 69%
    09:00 +13°C° 0 mm 5 mps 664 mmHg 66%
    10:00 +14°C° 0 mm 5 mps 664 mmHg 65%
    11:00 +14°C° 0 mm 5 mps 665 mmHg 64%
    12:00 +14°C° 0 mm 5 mps 665 mmHg 63%
    13:00 +15°C° 0 mm 5 mps 665 mmHg 62%
    14:00 +15°C° 0 mm 4 mps 665 mmHg 61%
    15:00 +15°C° 0 mm 4 mps 665 mmHg 60%
    16:00 +15°C° 0 mm 4 mps 665 mmHg 63%
    17:00 +14°C° 0 mm 4 mps 665 mmHg 65%
    18:00 +13°C° 0 mm 3 mps 665 mmHg 68%
    19:00 +12°C° 0 mm 3 mps 665 mmHg 72%
    20:00 +12°C° 0 mm 2 mps 665 mmHg 76%
    21:00 +11°C° 0 mm 1 mps 665 mmHg 80%
    22:00 +11°C° 0 mm 1 mps 665 mmHg 81%
    23:00 +10°C° 0 mm 1 mps 665 mmHg 82%
    Show more